GW1187 Weather Reports


time (UTC)temp
C
wind
direction
speed
KPH
gust
KPH
rain 1hr
cm
rain 24hr
cm
rain mn
cm
humidity
%
barometer
mb
20260510230045 18 101 0.0 12.9 0.00 0.00 0.00 46 1012.2
20260510224558 18 66 1.6 14.5 0.00 0.03 0.00 47 1012.0
20260510223047 18 0 1.6 11.3 0.00 0.03 0.00 49 1011.8
20260510221546 18 142 3.2 16.1 0.00 0.03 0.00 47 1011.7
20260510220048 19 153 3.2 14.5 0.00 0.03 0.00 45 1011.4
20260510214601 19 146 1.6 8.0 0.00 0.15 0.00 49 1011.0
20260510213049 20 0 0.0 8.0 0.00 0.15 0.00 47 1010.9
20260510211544 21 0 1.6 8.0 0.00 0.15 0.00 44 1010.6
20260510210041 22 0 0.0 6.4 0.00 0.15 0.00 45 1010.6
20260510204558 21 0 0.0 8.0 0.00 0.36 0.00 49 1010.5
20260510203048 21 0 1.6 16.1 0.00 0.36 0.00 49 1010.6
20260510201547 21 0 3.2 14.5 0.00 0.36 0.00 49 1010.7
20260510200049 21 0 3.2 14.5 0.00 0.36 0.00 49 1010.7
20260510194544 21 337 3.2 14.5 0.00 0.51 0.00 50 1010.7
20260510193057 21 318 6.4 17.7 0.00 0.51 0.00 54 1010.7
20260510191549 20 191 1.6 14.5 0.00 0.51 0.00 58 1010.9
20260510190048 20 115 1.6 6.4 0.00 0.51 0.00 59 1011.0
20260510184556 20 131 1.6 9.7 0.00 0.64 0.00 59 1010.8
20260510183047 20 0 4.8 11.3 0.00 0.64 0.00 59 1010.8
20260510181541 20 135 4.8 16.1 0.00 0.64 0.00 58 1010.7
20260510180051 20 33 4.8 14.5 0.00 0.64 0.00 57 1010.9
20260510174551 20 51 3.2 16.1 0.00 0.86 0.00 59 1011.1
20260510173047 19 343 8.0 20.9 0.00 0.86 0.00 60 1011.1
20260510171546 19 304 6.4 12.9 0.00 0.86 0.00 62 1011.2
20260510170047 18 3 8.0 12.9 0.00 0.86 0.00 64 1011.4
20260510164541 18 158 3.2 11.3 0.00 1.12 0.00 65 1011.5
20260510163041 18 330 6.4 14.5 0.00 1.12 0.00 65 1011.5
20260510161548 17 350 6.4 17.7 0.00 1.12 0.00 67 1011.6
20260510160050 18 67 3.2 12.9 0.00 1.12 0.00 69 1011.6
20260510154542 17 87 3.2 9.7 0.00 1.24 0.00 72 1011.7
20260510153041 16 42 6.4 14.5 0.00 1.24 0.00 74 1011.6
20260510151550 15 17 4.8 9.7 0.00 1.24 0.00 78 1012.0
20260510150045 15 44 0.0 6.4 0.00 1.24 0.00 81 1011.6
20260510144547 14 18 3.2 11.3 0.00 1.32 0.00 83 1012.0
20260510143046 13 48 4.8 11.3 0.00 1.32 0.00 84 1012.1
20260510141552 12 25 1.6 9.7 0.00 1.32 0.00 87 1012.1
20260510140054 12 49 3.2 12.9 0.00 1.32 0.00 89 1012.2
20260510134542 12 25 6.4 9.7 0.00 1.37 0.00 90 1012.2
20260510133047 11 333 3.2 9.7 0.00 1.37 0.00 92 1012.1
20260510131547 11 356 3.2 6.4 0.00 1.37 0.00 93 1012.0
20260510130046 11 34 3.2 9.7 0.00 1.37 0.00 94 1011.9
20260510124553 10 34 1.6 9.7 0.00 1.47 0.00 95 1012.1
20260510123050 10 3 3.2 6.4 0.00 1.47 0.00 95 1012.1
20260510121541 10 350 4.8 8.0 0.00 1.47 0.00 95 1012.1
20260510120047 10 0 0.0 1.6 0.00 1.47 0.00 96 1012.4
20260510114545 10 332 3.2 9.7 0.00 1.47 0.00 96 1012.0
20260510113043 10 9 3.2 9.7 0.00 1.47 0.00 96 1012.0
20260510111540 10 24 0.0 8.0 0.00 1.47 0.00 96 1011.6
20260510110050 10 297 0.0 4.8 0.00 1.47 0.00 96 1011.6
20260510104548 9 44 0.0 4.8 0.00 1.47 0.00 96 1011.4
20260510103057 9 0 0.0 1.6 0.00 1.47 0.00 96 1011.0
20260510101550 9 60 0.0 3.2 0.00 1.47 0.00 96 1011.0
20260510100044 9 18 0.0 3.2 0.00 1.47 0.00 96 1010.5
20260510094545 9 0 0.0 0.0 0.00 1.47 0.00 97 1010.6
20260510093048 8 0 0.0 0.0 0.00 1.47 0.00 97 1010.6
20260510091547 8 0 0.0 0.0 0.00 1.47 0.00 97 1010.4
20260510090056 8 0 0.0 0.0 0.00 1.47 0.00 96 1010.8
20260510084545 8 0 0.0 0.0 0.00 1.47 0.00 96 1010.7
20260510083041 8 0 0.0 0.0 0.00 1.47 0.00 96 1010.9
20260510081602 8 0 0.0 0.0 0.00 1.47 0.00 96 1010.8
20260510080050 8 0 0.0 0.0 0.00 1.47 0.00 96 1010.7
20260510074547 7 0 0.0 0.0 0.00 1.47 0.00 96 1010.6
20260510073049 7 0 0.0 0.0 0.00 1.47 0.00 96 1010.7
20260510071546 7 0 0.0 0.0 0.00 1.47 0.00 96 1010.6
20260510070047 7 0 0.0 0.0 0.00 1.47 0.00 96 1010.6
20260510064541 7 0 0.0 0.0 0.00 1.47 0.00 96 1010.6
20260510063048 7 0 0.0 0.0 0.00 1.47 0.00 96 1010.8
20260510061557 7 0 0.0 0.0 0.00 1.47 0.00 96 1010.7
20260510060047 7 0 0.0 0.0 0.00 1.47 0.00 96 1010.5
20260510054557 7 0 0.0 0.0 0.00 1.47 0.00 96 1010.9
20260510053045 7 0 0.0 0.0 0.00 1.47 0.00 96 1010.7
20260510051548 7 0 0.0 0.0 0.00 1.47 0.00 96 1010.9
20260510050053 7 0 0.0 0.0 0.00 1.47 0.00 96 1011.0
20260510044548 7 0 0.0 0.0 0.00 1.47 0.00 96 1011.2
20260510043047 7 0 0.0 0.0 0.00 1.47 0.00 96 1011.1
20260510041601 7 0 0.0 0.0 0.00 1.47 0.00 96 1011.3
20260510040042 7 0 0.0 0.0 0.00 1.47 0.00 96 1011.1
20260510034545 7 0 0.0 0.0 0.00 1.47 1.47 96 1011.1
20260510033052 7 0 0.0 0.0 0.00 1.47 1.47 96 1011.4
20260510031553 7 0 0.0 0.0 0.00 1.47 1.47 96 1011.6
20260510030046 7 0 0.0 0.0 0.00 1.47 1.47 96 1011.7
20260510024604 7 0 0.0 0.0 0.00 1.47 1.47 96 1011.7
20260510023041 7 0 0.0 0.0 0.00 1.47 1.47 96 1011.9
20260510021547 7 0 0.0 0.0 0.00 1.47 1.47 96 1011.9
20260510020047 7 0 0.0 0.0 0.00 1.47 1.47 96 1011.9
20260510014608 7 0 0.0 0.0 0.00 1.47 1.47 96 1012.1
20260510013059 7 0 0.0 0.0 0.00 1.47 1.47 95 1012.1
20260510011544 7 0 0.0 0.0 0.00 1.47 1.47 95 1011.7
20260510010041 7 0 0.0 0.0 0.00 1.47 1.47 95 1011.6
20260510004547 7 0 0.0 0.0 0.00 1.47 1.47 95 1011.6
20260510003048 7 0 0.0 0.0 0.00 1.47 1.47 95 1011.4
20260510001546 7 0 0.0 0.0 0.00 1.47 1.47 95 1011.4
20260510000046 7 0 0.0 0.0 0.00 1.47 1.47 95 1011.4
20260509234543 7 0 0.0 0.0 0.00 1.47 1.47 95 1011.4
20260509233043 7 0 0.0 0.0 0.00 1.47 1.47 95 1011.3
20260509231546 7 0 0.0 0.0 0.00 1.47 1.47 95 1011.2